Location: Asheville, NC
(35.6000°N, 82.5500°W)
Time: 06:36:34
(UTC-05:00)

Tiangong 1 - Pass Details

Date: 15 February 2018
Orbit: 245 x 266 km, 42.8° (Epoch: 25 February)

Event Time Altitude Azimuth Distance (km) Brightness Sun altitude
Exits shadow 05:54:57 14° 15° (NNE) 834 2.9 -17.3°
Drops below altitude 10° 05:56:06 10° 45° (NE) 1,028 3.8 -17.0°
Sets 05:58:30 0° 72° (ENE) 1,840 5.8 -16.5°
